<?xml version="1.0" encoding="UTF-8" standalone="no" ?>
<gpx xmlns="http://www.topografix.com/GPX/1/1" xmlns:xsi="http://www.w3.org/2001/XMLSchema-instance" xsi:schemaLocation="http://www.topografix.com/GPX/1/1 http://www.topografix.com/GPX/1/1/gpx.xsd" version="1.1" creator="VisuGPX - https://www.visugpx.com">
  <metadata>
    <name>13874768-Parcours 2022 40 kms</name>
  </metadata>
  <trk>
    <name><![CDATA[13874768-Parcours 2022 40 kms]]></name>
    <trkseg>
      <trkpt lat="46.59534" lon="-1.45327">
        <ele>55</ele>
        <time>2022-02-27T18:07:58Z</time>
      </trkpt>
      <trkpt lat="46.59539" lon="-1.45328">
        <ele>55</ele>
        <time>2022-02-27T18:07:59Z</time>
      </trkpt>
      <trkpt lat="46.59545" lon="-1.45318">
        <ele>55</ele>
        <time>2022-02-27T18:08:01Z</time>
      </trkpt>
      <trkpt lat="46.59557" lon="-1.4531">
        <ele>55</ele>
        <time>2022-02-27T18:08:04Z</time>
      </trkpt>
      <trkpt lat="46.59567" lon="-1.45299">
        <ele>55</ele>
        <time>2022-02-27T18:08:07Z</time>
      </trkpt>
      <trkpt lat="46.59561" lon="-1.45273">
        <ele>55</ele>
        <time>2022-02-27T18:08:12Z</time>
      </trkpt>
      <trkpt lat="46.5956" lon="-1.45255">
        <ele>54</ele>
        <time>2022-02-27T18:08:15Z</time>
      </trkpt>
      <trkpt lat="46.59565" lon="-1.45235">
        <ele>54</ele>
        <time>2022-02-27T18:08:18Z</time>
      </trkpt>
      <trkpt lat="46.59581" lon="-1.45225">
        <ele>54</ele>
        <time>2022-02-27T18:08:22Z</time>
      </trkpt>
      <trkpt lat="46.59597" lon="-1.45278">
        <ele>55</ele>
        <time>2022-02-27T18:08:31Z</time>
      </trkpt>
      <trkpt lat="46.59627" lon="-1.45268">
        <ele>55</ele>
        <time>2022-02-27T18:08:39Z</time>
      </trkpt>
      <trkpt lat="46.59639" lon="-1.45247">
        <ele>55</ele>
        <time>2022-02-27T18:08:43Z</time>
      </trkpt>
      <trkpt lat="46.59654" lon="-1.4524">
        <ele>55</ele>
        <time>2022-02-27T18:08:47Z</time>
      </trkpt>
      <trkpt lat="46.59651" lon="-1.45202">
        <ele>54</ele>
        <time>2022-02-27T18:08:53Z</time>
      </trkpt>
      <trkpt lat="46.59659" lon="-1.45196">
        <ele>54</ele>
        <time>2022-02-27T18:08:55Z</time>
      </trkpt>
      <trkpt lat="46.59668" lon="-1.45175">
        <ele>53</ele>
        <time>2022-02-27T18:08:59Z</time>
      </trkpt>
      <trkpt lat="46.59676" lon="-1.45163">
        <ele>53</ele>
        <time>2022-02-27T18:09:02Z</time>
      </trkpt>
      <trkpt lat="46.59671" lon="-1.45118">
        <ele>53</ele>
        <time>2022-02-27T18:09:09Z</time>
      </trkpt>
      <trkpt lat="46.59723" lon="-1.4512">
        <ele>55</ele>
        <time>2022-02-27T18:09:21Z</time>
      </trkpt>
      <trkpt lat="46.59727" lon="-1.45082">
        <ele>55</ele>
        <time>2022-02-27T18:09:27Z</time>
      </trkpt>
      <trkpt lat="46.59878" lon="-1.45048">
        <ele>59</ele>
        <time>2022-02-27T18:10:03Z</time>
      </trkpt>
      <trkpt lat="46.59917" lon="-1.45021">
        <ele>59</ele>
        <time>2022-02-27T18:10:13Z</time>
      </trkpt>
      <trkpt lat="46.59947" lon="-1.44975">
        <ele>57</ele>
        <time>2022-02-27T18:10:23Z</time>
      </trkpt>
      <trkpt lat="46.59962" lon="-1.44966">
        <ele>57</ele>
        <time>2022-02-27T18:10:27Z</time>
      </trkpt>
      <trkpt lat="46.6001" lon="-1.44964">
        <ele>56</ele>
        <time>2022-02-27T18:10:38Z</time>
      </trkpt>
      <trkpt lat="46.60028" lon="-1.44947">
        <ele>57</ele>
        <time>2022-02-27T18:10:43Z</time>
      </trkpt>
      <trkpt lat="46.60037" lon="-1.44905">
        <ele>57</ele>
        <time>2022-02-27T18:10:50Z</time>
      </trkpt>
      <trkpt lat="46.60056" lon="-1.4489">
        <ele>58</ele>
        <time>2022-02-27T18:10:55Z</time>
      </trkpt>
      <trkpt lat="46.60082" lon="-1.44908">
        <ele>59</ele>
        <time>2022-02-27T18:11:02Z</time>
      </trkpt>
      <trkpt lat="46.60123" lon="-1.44928">
        <ele>60</ele>
        <time>2022-02-27T18:11:12Z</time>
      </trkpt>
      <trkpt lat="46.60214" lon="-1.44838">
        <ele>59</ele>
        <time>2022-02-27T18:11:38Z</time>
      </trkpt>
      <trkpt lat="46.60231" lon="-1.44817">
        <ele>59</ele>
        <time>2022-02-27T18:11:43Z</time>
      </trkpt>
      <trkpt lat="46.60163" lon="-1.44617">
        <ele>52</ele>
        <time>2022-02-27T18:12:19Z</time>
      </trkpt>
      <trkpt lat="46.60162" lon="-1.44586">
        <ele>50</ele>
        <time>2022-02-27T18:12:24Z</time>
      </trkpt>
      <trkpt lat="46.60172" lon="-1.44574">
        <ele>50</ele>
        <time>2022-02-27T18:12:27Z</time>
      </trkpt>
      <trkpt lat="46.60215" lon="-1.4457">
        <ele>49</ele>
        <time>2022-02-27T18:12:37Z</time>
      </trkpt>
      <trkpt lat="46.60247" lon="-1.44551">
        <ele>48</ele>
        <time>2022-02-27T18:12:45Z</time>
      </trkpt>
      <trkpt lat="46.60308" lon="-1.44483">
        <ele>47</ele>
        <time>2022-02-27T18:13:03Z</time>
      </trkpt>
      <trkpt lat="46.60317" lon="-1.44446">
        <ele>46</ele>
        <time>2022-02-27T18:13:09Z</time>
      </trkpt>
      <trkpt lat="46.60413" lon="-1.44482">
        <ele>48</ele>
        <time>2022-02-27T18:13:32Z</time>
      </trkpt>
      <trkpt lat="46.60422" lon="-1.44511">
        <ele>49</ele>
        <time>2022-02-27T18:13:37Z</time>
      </trkpt>
      <trkpt lat="46.60442" lon="-1.44452">
        <ele>47</ele>
        <time>2022-02-27T18:13:48Z</time>
      </trkpt>
      <trkpt lat="46.60458" lon="-1.44452">
        <ele>47</ele>
        <time>2022-02-27T18:13:52Z</time>
      </trkpt>
      <trkpt lat="46.60496" lon="-1.44431">
        <ele>46</ele>
        <time>2022-02-27T18:14:01Z</time>
      </trkpt>
      <trkpt lat="46.60555" lon="-1.44405">
        <ele>47</ele>
        <time>2022-02-27T18:14:16Z</time>
      </trkpt>
      <trkpt lat="46.60593" lon="-1.44383">
        <ele>47</ele>
        <time>2022-02-27T18:14:25Z</time>
      </trkpt>
      <trkpt lat="46.60619" lon="-1.44363">
        <ele>47</ele>
        <time>2022-02-27T18:14:32Z</time>
      </trkpt>
      <trkpt lat="46.6064" lon="-1.44407">
        <ele>47</ele>
        <time>2022-02-27T18:14:41Z</time>
      </trkpt>
      <trkpt lat="46.60653" lon="-1.44426">
        <ele>47</ele>
        <time>2022-02-27T18:14:45Z</time>
      </trkpt>
      <trkpt lat="46.60665" lon="-1.44381">
        <ele>47</ele>
        <time>2022-02-27T18:14:53Z</time>
      </trkpt>
      <trkpt lat="46.60665" lon="-1.44343">
        <ele>46</ele>
        <time>2022-02-27T18:14:59Z</time>
      </trkpt>
      <trkpt lat="46.60671" lon="-1.44264">
        <ele>45</ele>
        <time>2022-02-27T18:15:11Z</time>
      </trkpt>
      <trkpt lat="46.60506" lon="-1.43697">
        <ele>63</ele>
        <time>2022-02-27T18:16:50Z</time>
      </trkpt>
      <trkpt lat="46.60566" lon="-1.43635">
        <ele>65</ele>
        <time>2022-02-27T18:17:07Z</time>
      </trkpt>
      <trkpt lat="46.60417" lon="-1.43368">
        <ele>70</ele>
        <time>2022-02-27T18:18:03Z</time>
      </trkpt>
      <trkpt lat="46.60289" lon="-1.43254">
        <ele>70</ele>
        <time>2022-02-27T18:18:38Z</time>
      </trkpt>
      <trkpt lat="46.60208" lon="-1.43089">
        <ele>68</ele>
        <time>2022-02-27T18:19:10Z</time>
      </trkpt>
      <trkpt lat="46.60117" lon="-1.42992">
        <ele>66</ele>
        <time>2022-02-27T18:19:37Z</time>
      </trkpt>
      <trkpt lat="46.60048" lon="-1.42819">
        <ele>68</ele>
        <time>2022-02-27T18:20:09Z</time>
      </trkpt>
      <trkpt lat="46.59992" lon="-1.4246">
        <ele>65</ele>
        <time>2022-02-27T18:21:08Z</time>
      </trkpt>
      <trkpt lat="46.59942" lon="-1.42269">
        <ele>65</ele>
        <time>2022-02-27T18:21:41Z</time>
      </trkpt>
      <trkpt lat="46.60013" lon="-1.42214">
        <ele>66</ele>
        <time>2022-02-27T18:21:59Z</time>
      </trkpt>
      <trkpt lat="46.60145" lon="-1.4216">
        <ele>63</ele>
        <time>2022-02-27T18:22:31Z</time>
      </trkpt>
      <trkpt lat="46.60094" lon="-1.42035">
        <ele>63</ele>
        <time>2022-02-27T18:22:55Z</time>
      </trkpt>
      <trkpt lat="46.60197" lon="-1.41971">
        <ele>59</ele>
        <time>2022-02-27T18:23:21Z</time>
      </trkpt>
      <trkpt lat="46.60279" lon="-1.41939">
        <ele>57</ele>
        <time>2022-02-27T18:23:41Z</time>
      </trkpt>
      <trkpt lat="46.60342" lon="-1.41883">
        <ele>56</ele>
        <time>2022-02-27T18:23:58Z</time>
      </trkpt>
      <trkpt lat="46.60425" lon="-1.41748">
        <ele>56</ele>
        <time>2022-02-27T18:24:27Z</time>
      </trkpt>
      <trkpt lat="46.60483" lon="-1.41799">
        <ele>56</ele>
        <time>2022-02-27T18:24:43Z</time>
      </trkpt>
      <trkpt lat="46.60556" lon="-1.41944">
        <ele>58</ele>
        <time>2022-02-27T18:25:12Z</time>
      </trkpt>
      <trkpt lat="46.60592" lon="-1.4204">
        <ele>59</ele>
        <time>2022-02-27T18:25:29Z</time>
      </trkpt>
      <trkpt lat="46.60637" lon="-1.41955">
        <ele>58</ele>
        <time>2022-02-27T18:25:46Z</time>
      </trkpt>
      <trkpt lat="46.60658" lon="-1.4191">
        <ele>57</ele>
        <time>2022-02-27T18:25:55Z</time>
      </trkpt>
      <trkpt lat="46.60595" lon="-1.41872">
        <ele>57</ele>
        <time>2022-02-27T18:26:11Z</time>
      </trkpt>
      <trkpt lat="46.60448" lon="-1.41735">
        <ele>55</ele>
        <time>2022-02-27T18:26:52Z</time>
      </trkpt>
      <trkpt lat="46.60339" lon="-1.41583">
        <ele>55</ele>
        <time>2022-02-27T18:27:27Z</time>
      </trkpt>
      <trkpt lat="46.60282" lon="-1.41469">
        <ele>57</ele>
        <time>2022-02-27T18:27:50Z</time>
      </trkpt>
      <trkpt lat="46.60151" lon="-1.41383">
        <ele>60</ele>
        <time>2022-02-27T18:28:23Z</time>
      </trkpt>
      <trkpt lat="46.60059" lon="-1.41358">
        <ele>62</ele>
        <time>2022-02-27T18:28:45Z</time>
      </trkpt>
      <trkpt lat="46.59915" lon="-1.41214">
        <ele>64</ele>
        <time>2022-02-27T18:29:26Z</time>
      </trkpt>
      <trkpt lat="46.59866" lon="-1.41177">
        <ele>66</ele>
        <time>2022-02-27T18:29:39Z</time>
      </trkpt>
      <trkpt lat="46.59886" lon="-1.41164">
        <ele>66</ele>
        <time>2022-02-27T18:29:44Z</time>
      </trkpt>
      <trkpt lat="46.59922" lon="-1.41127">
        <ele>66</ele>
        <time>2022-02-27T18:29:54Z</time>
      </trkpt>
      <trkpt lat="46.59887" lon="-1.4107">
        <ele>66</ele>
        <time>2022-02-27T18:30:06Z</time>
      </trkpt>
      <trkpt lat="46.59893" lon="-1.41003">
        <ele>66</ele>
        <time>2022-02-27T18:30:17Z</time>
      </trkpt>
      <trkpt lat="46.59875" lon="-1.40937">
        <ele>65</ele>
        <time>2022-02-27T18:30:29Z</time>
      </trkpt>
      <trkpt lat="46.59856" lon="-1.40882">
        <ele>65</ele>
        <time>2022-02-27T18:30:39Z</time>
      </trkpt>
      <trkpt lat="46.59852" lon="-1.40785">
        <ele>64</ele>
        <time>2022-02-27T18:30:54Z</time>
      </trkpt>
      <trkpt lat="46.59837" lon="-1.40696">
        <ele>65</ele>
        <time>2022-02-27T18:31:09Z</time>
      </trkpt>
      <trkpt lat="46.5982" lon="-1.40609">
        <ele>63</ele>
        <time>2022-02-27T18:31:23Z</time>
      </trkpt>
      <trkpt lat="46.59794" lon="-1.40506">
        <ele>60</ele>
        <time>2022-02-27T18:31:41Z</time>
      </trkpt>
      <trkpt lat="46.59777" lon="-1.4042">
        <ele>56</ele>
        <time>2022-02-27T18:31:55Z</time>
      </trkpt>
      <trkpt lat="46.59768" lon="-1.40387">
        <ele>56</ele>
        <time>2022-02-27T18:32:01Z</time>
      </trkpt>
      <trkpt lat="46.59799" lon="-1.40201">
        <ele>60</ele>
        <time>2022-02-27T18:32:32Z</time>
      </trkpt>
      <trkpt lat="46.59842" lon="-1.40138">
        <ele>60</ele>
        <time>2022-02-27T18:32:46Z</time>
      </trkpt>
      <trkpt lat="46.59853" lon="-1.40072">
        <ele>60</ele>
        <time>2022-02-27T18:32:57Z</time>
      </trkpt>
      <trkpt lat="46.59819" lon="-1.39992">
        <ele>61</ele>
        <time>2022-02-27T18:33:12Z</time>
      </trkpt>
      <trkpt lat="46.59786" lon="-1.39937">
        <ele>59</ele>
        <time>2022-02-27T18:33:24Z</time>
      </trkpt>
      <trkpt lat="46.59755" lon="-1.39867">
        <ele>60</ele>
        <time>2022-02-27T18:33:37Z</time>
      </trkpt>
      <trkpt lat="46.59657" lon="-1.39754">
        <ele>52</ele>
        <time>2022-02-27T18:34:06Z</time>
      </trkpt>
      <trkpt lat="46.59621" lon="-1.39723">
        <ele>49</ele>
        <time>2022-02-27T18:34:16Z</time>
      </trkpt>
      <trkpt lat="46.59668" lon="-1.39733">
        <ele>51</ele>
        <time>2022-02-27T18:34:27Z</time>
      </trkpt>
      <trkpt lat="46.59768" lon="-1.39716">
        <ele>56</ele>
        <time>2022-02-27T18:34:51Z</time>
      </trkpt>
      <trkpt lat="46.59865" lon="-1.39674">
        <ele>56</ele>
        <time>2022-02-27T18:35:14Z</time>
      </trkpt>
      <trkpt lat="46.60006" lon="-1.39637">
        <ele>58</ele>
        <time>2022-02-27T18:35:48Z</time>
      </trkpt>
      <trkpt lat="46.60019" lon="-1.39536">
        <ele>55</ele>
        <time>2022-02-27T18:36:04Z</time>
      </trkpt>
      <trkpt lat="46.60013" lon="-1.39433">
        <ele>53</ele>
        <time>2022-02-27T18:36:21Z</time>
      </trkpt>
      <trkpt lat="46.60032" lon="-1.39303">
        <ele>51</ele>
        <time>2022-02-27T18:36:42Z</time>
      </trkpt>
      <trkpt lat="46.60061" lon="-1.39272">
        <ele>51</ele>
        <time>2022-02-27T18:36:51Z</time>
      </trkpt>
      <trkpt lat="46.6018" lon="-1.39215">
        <ele>53</ele>
        <time>2022-02-27T18:37:20Z</time>
      </trkpt>
      <trkpt lat="46.60168" lon="-1.39154">
        <ele>53</ele>
        <time>2022-02-27T18:37:30Z</time>
      </trkpt>
      <trkpt lat="46.60162" lon="-1.38951">
        <ele>51</ele>
        <time>2022-02-27T18:38:03Z</time>
      </trkpt>
      <trkpt lat="46.60454" lon="-1.39091">
        <ele>35</ele>
        <time>2022-02-27T18:39:14Z</time>
      </trkpt>
      <trkpt lat="46.60467" lon="-1.39134">
        <ele>36</ele>
        <time>2022-02-27T18:39:22Z</time>
      </trkpt>
      <trkpt lat="46.60496" lon="-1.39168">
        <ele>34</ele>
        <time>2022-02-27T18:39:31Z</time>
      </trkpt>
      <trkpt lat="46.60521" lon="-1.39227">
        <ele>35</ele>
        <time>2022-02-27T18:39:42Z</time>
      </trkpt>
      <trkpt lat="46.60541" lon="-1.39267">
        <ele>36</ele>
        <time>2022-02-27T18:39:50Z</time>
      </trkpt>
      <trkpt lat="46.60563" lon="-1.39256">
        <ele>36</ele>
        <time>2022-02-27T18:39:55Z</time>
      </trkpt>
      <trkpt lat="46.60573" lon="-1.39265">
        <ele>36</ele>
        <time>2022-02-27T18:39:58Z</time>
      </trkpt>
      <trkpt lat="46.60563" lon="-1.39282">
        <ele>36</ele>
        <time>2022-02-27T18:40:01Z</time>
      </trkpt>
      <trkpt lat="46.60595" lon="-1.39389">
        <ele>36</ele>
        <time>2022-02-27T18:40:20Z</time>
      </trkpt>
      <trkpt lat="46.60611" lon="-1.39378">
        <ele>36</ele>
        <time>2022-02-27T18:40:24Z</time>
      </trkpt>
      <trkpt lat="46.60617" lon="-1.39365">
        <ele>36</ele>
        <time>2022-02-27T18:40:27Z</time>
      </trkpt>
      <trkpt lat="46.60622" lon="-1.39322">
        <ele>36</ele>
        <time>2022-02-27T18:40:34Z</time>
      </trkpt>
      <trkpt lat="46.60615" lon="-1.39275">
        <ele>36</ele>
        <time>2022-02-27T18:40:42Z</time>
      </trkpt>
      <trkpt lat="46.60621" lon="-1.39252">
        <ele>36</ele>
        <time>2022-02-27T18:40:45Z</time>
      </trkpt>
      <trkpt lat="46.60655" lon="-1.39222">
        <ele>35</ele>
        <time>2022-02-27T18:40:55Z</time>
      </trkpt>
      <trkpt lat="46.60678" lon="-1.39208">
        <ele>35</ele>
        <time>2022-02-27T18:41:01Z</time>
      </trkpt>
      <trkpt lat="46.60674" lon="-1.39185">
        <ele>35</ele>
        <time>2022-02-27T18:41:04Z</time>
      </trkpt>
      <trkpt lat="46.60654" lon="-1.39124">
        <ele>34</ele>
        <time>2022-02-27T18:41:15Z</time>
      </trkpt>
      <trkpt lat="46.60681" lon="-1.39069">
        <ele>35</ele>
        <time>2022-02-27T18:41:26Z</time>
      </trkpt>
      <trkpt lat="46.60756" lon="-1.38978">
        <ele>38</ele>
        <time>2022-02-27T18:41:49Z</time>
      </trkpt>
      <trkpt lat="46.60842" lon="-1.38845">
        <ele>39</ele>
        <time>2022-02-27T18:42:18Z</time>
      </trkpt>
      <trkpt lat="46.60887" lon="-1.38771">
        <ele>40</ele>
        <time>2022-02-27T18:42:34Z</time>
      </trkpt>
      <trkpt lat="46.60917" lon="-1.38665">
        <ele>43</ele>
        <time>2022-02-27T18:42:52Z</time>
      </trkpt>
      <trkpt lat="46.60948" lon="-1.38584">
        <ele>47</ele>
        <time>2022-02-27T18:43:07Z</time>
      </trkpt>
      <trkpt lat="46.60943" lon="-1.38568">
        <ele>47</ele>
        <time>2022-02-27T18:43:10Z</time>
      </trkpt>
      <trkpt lat="46.6093" lon="-1.3856">
        <ele>46</ele>
        <time>2022-02-27T18:43:13Z</time>
      </trkpt>
      <trkpt lat="46.60875" lon="-1.38552">
        <ele>41</ele>
        <time>2022-02-27T18:43:26Z</time>
      </trkpt>
      <trkpt lat="46.60802" lon="-1.38545">
        <ele>37</ele>
        <time>2022-02-27T18:43:43Z</time>
      </trkpt>
      <trkpt lat="46.60797" lon="-1.38533">
        <ele>37</ele>
        <time>2022-02-27T18:43:46Z</time>
      </trkpt>
      <trkpt lat="46.60796" lon="-1.38494">
        <ele>37</ele>
        <time>2022-02-27T18:43:52Z</time>
      </trkpt>
      <trkpt lat="46.60791" lon="-1.38446">
        <ele>37</ele>
        <time>2022-02-27T18:44:00Z</time>
      </trkpt>
      <trkpt lat="46.6077" lon="-1.38339">
        <ele>36</ele>
        <time>2022-02-27T18:44:18Z</time>
      </trkpt>
      <trkpt lat="46.6077" lon="-1.38313">
        <ele>36</ele>
        <time>2022-02-27T18:44:22Z</time>
      </trkpt>
      <trkpt lat="46.60778" lon="-1.38288">
        <ele>37</ele>
        <time>2022-02-27T18:44:26Z</time>
      </trkpt>
      <trkpt lat="46.6078" lon="-1.38267">
        <ele>37</ele>
        <time>2022-02-27T18:44:30Z</time>
      </trkpt>
      <trkpt lat="46.60778" lon="-1.38255">
        <ele>37</ele>
        <time>2022-02-27T18:44:32Z</time>
      </trkpt>
      <trkpt lat="46.60718" lon="-1.38159">
        <ele>36</ele>
        <time>2022-02-27T18:44:52Z</time>
      </trkpt>
      <trkpt lat="46.60696" lon="-1.38036">
        <ele>36</ele>
        <time>2022-02-27T18:45:13Z</time>
      </trkpt>
      <trkpt lat="46.60629" lon="-1.37856">
        <ele>37</ele>
        <time>2022-02-27T18:45:46Z</time>
      </trkpt>
      <trkpt lat="46.60628" lon="-1.37833">
        <ele>38</ele>
        <time>2022-02-27T18:45:49Z</time>
      </trkpt>
      <trkpt lat="46.60596" lon="-1.37755">
        <ele>39</ele>
        <time>2022-02-27T18:46:04Z</time>
      </trkpt>
      <trkpt lat="46.60591" lon="-1.37727">
        <ele>40</ele>
        <time>2022-02-27T18:46:09Z</time>
      </trkpt>
      <trkpt lat="46.60568" lon="-1.37696">
        <ele>40</ele>
        <time>2022-02-27T18:46:16Z</time>
      </trkpt>
      <trkpt lat="46.6056" lon="-1.37673">
        <ele>41</ele>
        <time>2022-02-27T18:46:20Z</time>
      </trkpt>
      <trkpt lat="46.60556" lon="-1.37649">
        <ele>42</ele>
        <time>2022-02-27T18:46:24Z</time>
      </trkpt>
      <trkpt lat="46.60558" lon="-1.37598">
        <ele>43</ele>
        <time>2022-02-27T18:46:32Z</time>
      </trkpt>
      <trkpt lat="46.60555" lon="-1.37519">
        <ele>45</ele>
        <time>2022-02-27T18:46:45Z</time>
      </trkpt>
      <trkpt lat="46.60546" lon="-1.37488">
        <ele>46</ele>
        <time>2022-02-27T18:46:50Z</time>
      </trkpt>
      <trkpt lat="46.60527" lon="-1.37478">
        <ele>46</ele>
        <time>2022-02-27T18:46:55Z</time>
      </trkpt>
      <trkpt lat="46.60498" lon="-1.37455">
        <ele>46</ele>
        <time>2022-02-27T18:47:03Z</time>
      </trkpt>
      <trkpt lat="46.60476" lon="-1.37426">
        <ele>49</ele>
        <time>2022-02-27T18:47:10Z</time>
      </trkpt>
      <trkpt lat="46.60439" lon="-1.37416">
        <ele>52</ele>
        <time>2022-02-27T18:47:18Z</time>
      </trkpt>
      <trkpt lat="46.60411" lon="-1.37395">
        <ele>53</ele>
        <time>2022-02-27T18:47:26Z</time>
      </trkpt>
      <trkpt lat="46.60335" lon="-1.37367">
        <ele>58</ele>
        <time>2022-02-27T18:47:44Z</time>
      </trkpt>
      <trkpt lat="46.60264" lon="-1.3735">
        <ele>62</ele>
        <time>2022-02-27T18:48:01Z</time>
      </trkpt>
      <trkpt lat="46.60211" lon="-1.37331">
        <ele>65</ele>
        <time>2022-02-27T18:48:14Z</time>
      </trkpt>
      <trkpt lat="46.60061" lon="-1.37347">
        <ele>68</ele>
        <time>2022-02-27T18:48:49Z</time>
      </trkpt>
      <trkpt lat="46.59992" lon="-1.37315">
        <ele>66</ele>
        <time>2022-02-27T18:49:06Z</time>
      </trkpt>
      <trkpt lat="46.59963" lon="-1.37304">
        <ele>64</ele>
        <time>2022-02-27T18:49:13Z</time>
      </trkpt>
      <trkpt lat="46.59951" lon="-1.37309">
        <ele>63</ele>
        <time>2022-02-27T18:49:16Z</time>
      </trkpt>
      <trkpt lat="46.60039" lon="-1.37515">
        <ele>59</ele>
        <time>2022-02-27T18:49:54Z</time>
      </trkpt>
      <trkpt lat="46.60001" lon="-1.37584">
        <ele>53</ele>
        <time>2022-02-27T18:50:09Z</time>
      </trkpt>
      <trkpt lat="46.60011" lon="-1.37607">
        <ele>51</ele>
        <time>2022-02-27T18:50:13Z</time>
      </trkpt>
      <trkpt lat="46.59984" lon="-1.37684">
        <ele>43</ele>
        <time>2022-02-27T18:50:27Z</time>
      </trkpt>
      <trkpt lat="46.59925" lon="-1.37735">
        <ele>38</ele>
        <time>2022-02-27T18:50:43Z</time>
      </trkpt>
      <trkpt lat="46.59824" lon="-1.37799">
        <ele>34</ele>
        <time>2022-02-27T18:51:09Z</time>
      </trkpt>
      <trkpt lat="46.59754" lon="-1.37851">
        <ele>33</ele>
        <time>2022-02-27T18:51:27Z</time>
      </trkpt>
      <trkpt lat="46.59728" lon="-1.37896">
        <ele>32</ele>
        <time>2022-02-27T18:51:36Z</time>
      </trkpt>
      <trkpt lat="46.59674" lon="-1.37917">
        <ele>33</ele>
        <time>2022-02-27T18:51:49Z</time>
      </trkpt>
      <trkpt lat="46.59663" lon="-1.37943">
        <ele>34</ele>
        <time>2022-02-27T18:51:54Z</time>
      </trkpt>
      <trkpt lat="46.59611" lon="-1.37929">
        <ele>33</ele>
        <time>2022-02-27T18:52:07Z</time>
      </trkpt>
      <trkpt lat="46.59566" lon="-1.37863">
        <ele>33</ele>
        <time>2022-02-27T18:52:22Z</time>
      </trkpt>
      <trkpt lat="46.59445" lon="-1.37803">
        <ele>42</ele>
        <time>2022-02-27T18:52:51Z</time>
      </trkpt>
      <trkpt lat="46.59394" lon="-1.37662">
        <ele>39</ele>
        <time>2022-02-27T18:53:17Z</time>
      </trkpt>
      <trkpt lat="46.59315" lon="-1.37769">
        <ele>49</ele>
        <time>2022-02-27T18:53:42Z</time>
      </trkpt>
      <trkpt lat="46.59275" lon="-1.37687">
        <ele>50</ele>
        <time>2022-02-27T18:53:58Z</time>
      </trkpt>
      <trkpt lat="46.59232" lon="-1.37645">
        <ele>48</ele>
        <time>2022-02-27T18:54:11Z</time>
      </trkpt>
      <trkpt lat="46.59196" lon="-1.37621">
        <ele>47</ele>
        <time>2022-02-27T18:54:20Z</time>
      </trkpt>
      <trkpt lat="46.59112" lon="-1.37624">
        <ele>48</ele>
        <time>2022-02-27T18:54:39Z</time>
      </trkpt>
      <trkpt lat="46.59077" lon="-1.37614">
        <ele>48</ele>
        <time>2022-02-27T18:54:48Z</time>
      </trkpt>
      <trkpt lat="46.59028" lon="-1.37691">
        <ele>52</ele>
        <time>2022-02-27T18:55:05Z</time>
      </trkpt>
      <trkpt lat="46.58972" lon="-1.37594">
        <ele>49</ele>
        <time>2022-02-27T18:55:25Z</time>
      </trkpt>
      <trkpt lat="46.58898" lon="-1.37542">
        <ele>42</ele>
        <time>2022-02-27T18:55:44Z</time>
      </trkpt>
      <trkpt lat="46.58821" lon="-1.37497">
        <ele>38</ele>
        <time>2022-02-27T18:56:03Z</time>
      </trkpt>
      <trkpt lat="46.58781" lon="-1.375">
        <ele>41</ele>
        <time>2022-02-27T18:56:13Z</time>
      </trkpt>
      <trkpt lat="46.58744" lon="-1.37517">
        <ele>45</ele>
        <time>2022-02-27T18:56:22Z</time>
      </trkpt>
      <trkpt lat="46.58669" lon="-1.37481">
        <ele>53</ele>
        <time>2022-02-27T18:56:40Z</time>
      </trkpt>
      <trkpt lat="46.58659" lon="-1.37451">
        <ele>54</ele>
        <time>2022-02-27T18:56:46Z</time>
      </trkpt>
      <trkpt lat="46.58614" lon="-1.37244">
        <ele>56</ele>
        <time>2022-02-27T18:57:20Z</time>
      </trkpt>
      <trkpt lat="46.586" lon="-1.37199">
        <ele>55</ele>
        <time>2022-02-27T18:57:28Z</time>
      </trkpt>
      <trkpt lat="46.58601" lon="-1.37098">
        <ele>54</ele>
        <time>2022-02-27T18:57:45Z</time>
      </trkpt>
      <trkpt lat="46.58579" lon="-1.37056">
        <ele>52</ele>
        <time>2022-02-27T18:57:53Z</time>
      </trkpt>
      <trkpt lat="46.58529" lon="-1.36996">
        <ele>48</ele>
        <time>2022-02-27T18:58:08Z</time>
      </trkpt>
      <trkpt lat="46.58534" lon="-1.36954">
        <ele>46</ele>
        <time>2022-02-27T18:58:15Z</time>
      </trkpt>
      <trkpt lat="46.5853" lon="-1.36922">
        <ele>46</ele>
        <time>2022-02-27T18:58:20Z</time>
      </trkpt>
      <trkpt lat="46.58534" lon="-1.36896">
        <ele>45</ele>
        <time>2022-02-27T18:58:25Z</time>
      </trkpt>
      <trkpt lat="46.58546" lon="-1.36843">
        <ele>44</ele>
        <time>2022-02-27T18:58:34Z</time>
      </trkpt>
      <trkpt lat="46.58572" lon="-1.36789">
        <ele>42</ele>
        <time>2022-02-27T18:58:44Z</time>
      </trkpt>
      <trkpt lat="46.58587" lon="-1.36739">
        <ele>40</ele>
        <time>2022-02-27T18:58:53Z</time>
      </trkpt>
      <trkpt lat="46.58593" lon="-1.36608">
        <ele>37</ele>
        <time>2022-02-27T18:59:14Z</time>
      </trkpt>
      <trkpt lat="46.58606" lon="-1.36564">
        <ele>36</ele>
        <time>2022-02-27T18:59:22Z</time>
      </trkpt>
      <trkpt lat="46.58635" lon="-1.36499">
        <ele>35</ele>
        <time>2022-02-27T18:59:34Z</time>
      </trkpt>
      <trkpt lat="46.58645" lon="-1.36471">
        <ele>34</ele>
        <time>2022-02-27T18:59:39Z</time>
      </trkpt>
      <trkpt lat="46.58646" lon="-1.36452">
        <ele>34</ele>
        <time>2022-02-27T18:59:42Z</time>
      </trkpt>
      <trkpt lat="46.58612" lon="-1.36451">
        <ele>34</ele>
        <time>2022-02-27T18:59:50Z</time>
      </trkpt>
      <trkpt lat="46.58545" lon="-1.36468">
        <ele>36</ele>
        <time>2022-02-27T19:00:06Z</time>
      </trkpt>
      <trkpt lat="46.5851" lon="-1.36485">
        <ele>37</ele>
        <time>2022-02-27T19:00:15Z</time>
      </trkpt>
      <trkpt lat="46.58494" lon="-1.36483">
        <ele>38</ele>
        <time>2022-02-27T19:00:18Z</time>
      </trkpt>
      <trkpt lat="46.5842" lon="-1.3649">
        <ele>40</ele>
        <time>2022-02-27T19:00:36Z</time>
      </trkpt>
      <trkpt lat="46.58381" lon="-1.36535">
        <ele>41</ele>
        <time>2022-02-27T19:00:47Z</time>
      </trkpt>
      <trkpt lat="46.58355" lon="-1.36482">
        <ele>38</ele>
        <time>2022-02-27T19:00:58Z</time>
      </trkpt>
      <trkpt lat="46.58301" lon="-1.36412">
        <ele>33</ele>
        <time>2022-02-27T19:01:15Z</time>
      </trkpt>
      <trkpt lat="46.58247" lon="-1.36268">
        <ele>31</ele>
        <time>2022-02-27T19:01:41Z</time>
      </trkpt>
      <trkpt lat="46.58211" lon="-1.36135">
        <ele>39</ele>
        <time>2022-02-27T19:02:04Z</time>
      </trkpt>
      <trkpt lat="46.58197" lon="-1.36147">
        <ele>41</ele>
        <time>2022-02-27T19:02:08Z</time>
      </trkpt>
      <trkpt lat="46.58179" lon="-1.3624">
        <ele>36</ele>
        <time>2022-02-27T19:02:23Z</time>
      </trkpt>
      <trkpt lat="46.58165" lon="-1.36269">
        <ele>35</ele>
        <time>2022-02-27T19:02:29Z</time>
      </trkpt>
      <trkpt lat="46.58069" lon="-1.3626">
        <ele>40</ele>
        <time>2022-02-27T19:02:51Z</time>
      </trkpt>
      <trkpt lat="46.58041" lon="-1.36239">
        <ele>42</ele>
        <time>2022-02-27T19:02:59Z</time>
      </trkpt>
      <trkpt lat="46.57962" lon="-1.3613">
        <ele>43</ele>
        <time>2022-02-27T19:03:24Z</time>
      </trkpt>
      <trkpt lat="46.5793" lon="-1.36077">
        <ele>41</ele>
        <time>2022-02-27T19:03:36Z</time>
      </trkpt>
      <trkpt lat="46.57867" lon="-1.35931">
        <ele>35</ele>
        <time>2022-02-27T19:04:03Z</time>
      </trkpt>
      <trkpt lat="46.57851" lon="-1.35921">
        <ele>34</ele>
        <time>2022-02-27T19:04:07Z</time>
      </trkpt>
      <trkpt lat="46.57835" lon="-1.35827">
        <ele>36</ele>
        <time>2022-02-27T19:04:23Z</time>
      </trkpt>
      <trkpt lat="46.57868" lon="-1.35679">
        <ele>41</ele>
        <time>2022-02-27T19:04:48Z</time>
      </trkpt>
      <trkpt lat="46.57839" lon="-1.35558">
        <ele>43</ele>
        <time>2022-02-27T19:05:08Z</time>
      </trkpt>
      <trkpt lat="46.57824" lon="-1.35509">
        <ele>46</ele>
        <time>2022-02-27T19:05:17Z</time>
      </trkpt>
      <trkpt lat="46.57822" lon="-1.35462">
        <ele>48</ele>
        <time>2022-02-27T19:05:25Z</time>
      </trkpt>
      <trkpt lat="46.57831" lon="-1.35392">
        <ele>50</ele>
        <time>2022-02-27T19:05:36Z</time>
      </trkpt>
      <trkpt lat="46.57778" lon="-1.35374">
        <ele>49</ele>
        <time>2022-02-27T19:05:49Z</time>
      </trkpt>
      <trkpt lat="46.57767" lon="-1.35383">
        <ele>48</ele>
        <time>2022-02-27T19:05:52Z</time>
      </trkpt>
      <trkpt lat="46.57754" lon="-1.35414">
        <ele>46</ele>
        <time>2022-02-27T19:05:57Z</time>
      </trkpt>
      <trkpt lat="46.57724" lon="-1.35409">
        <ele>43</ele>
        <time>2022-02-27T19:06:04Z</time>
      </trkpt>
      <trkpt lat="46.5769" lon="-1.35464">
        <ele>35</ele>
        <time>2022-02-27T19:06:16Z</time>
      </trkpt>
      <trkpt lat="46.57659" lon="-1.3542">
        <ele>34</ele>
        <time>2022-02-27T19:06:26Z</time>
      </trkpt>
      <trkpt lat="46.57594" lon="-1.35369">
        <ele>37</ele>
        <time>2022-02-27T19:06:44Z</time>
      </trkpt>
      <trkpt lat="46.57541" lon="-1.35374">
        <ele>36</ele>
        <time>2022-02-27T19:06:56Z</time>
      </trkpt>
      <trkpt lat="46.57481" lon="-1.35394">
        <ele>36</ele>
        <time>2022-02-27T19:07:10Z</time>
      </trkpt>
      <trkpt lat="46.57436" lon="-1.35414">
        <ele>37</ele>
        <time>2022-02-27T19:07:21Z</time>
      </trkpt>
      <trkpt lat="46.57399" lon="-1.35442">
        <ele>37</ele>
        <time>2022-02-27T19:07:31Z</time>
      </trkpt>
      <trkpt lat="46.5732" lon="-1.35522">
        <ele>34</ele>
        <time>2022-02-27T19:07:54Z</time>
      </trkpt>
      <trkpt lat="46.57269" lon="-1.35529">
        <ele>37</ele>
        <time>2022-02-27T19:08:06Z</time>
      </trkpt>
      <trkpt lat="46.57228" lon="-1.35528">
        <ele>39</ele>
        <time>2022-02-27T19:08:15Z</time>
      </trkpt>
      <trkpt lat="46.57172" lon="-1.35336">
        <ele>46</ele>
        <time>2022-02-27T19:08:49Z</time>
      </trkpt>
      <trkpt lat="46.57169" lon="-1.35299">
        <ele>46</ele>
        <time>2022-02-27T19:08:55Z</time>
      </trkpt>
      <trkpt lat="46.57158" lon="-1.35248">
        <ele>45</ele>
        <time>2022-02-27T19:09:03Z</time>
      </trkpt>
      <trkpt lat="46.57111" lon="-1.35255">
        <ele>44</ele>
        <time>2022-02-27T19:09:14Z</time>
      </trkpt>
      <trkpt lat="46.5706" lon="-1.35273">
        <ele>44</ele>
        <time>2022-02-27T19:09:27Z</time>
      </trkpt>
      <trkpt lat="46.56958" lon="-1.35351">
        <ele>41</ele>
        <time>2022-02-27T19:09:53Z</time>
      </trkpt>
      <trkpt lat="46.56913" lon="-1.35246">
        <ele>40</ele>
        <time>2022-02-27T19:10:13Z</time>
      </trkpt>
      <trkpt lat="46.56903" lon="-1.35143">
        <ele>41</ele>
        <time>2022-02-27T19:10:30Z</time>
      </trkpt>
      <trkpt lat="46.56881" lon="-1.35116">
        <ele>38</ele>
        <time>2022-02-27T19:10:37Z</time>
      </trkpt>
      <trkpt lat="46.5687" lon="-1.35107">
        <ele>36</ele>
        <time>2022-02-27T19:10:40Z</time>
      </trkpt>
      <trkpt lat="46.56821" lon="-1.35202">
        <ele>31</ele>
        <time>2022-02-27T19:10:59Z</time>
      </trkpt>
      <trkpt lat="46.56744" lon="-1.35279">
        <ele>28</ele>
        <time>2022-02-27T19:11:21Z</time>
      </trkpt>
      <trkpt lat="46.56743" lon="-1.35307">
        <ele>28</ele>
        <time>2022-02-27T19:11:25Z</time>
      </trkpt>
      <trkpt lat="46.56747" lon="-1.3534">
        <ele>28</ele>
        <time>2022-02-27T19:11:30Z</time>
      </trkpt>
      <trkpt lat="46.56761" lon="-1.35387">
        <ele>29</ele>
        <time>2022-02-27T19:11:39Z</time>
      </trkpt>
      <trkpt lat="46.5677" lon="-1.35438">
        <ele>29</ele>
        <time>2022-02-27T19:11:47Z</time>
      </trkpt>
      <trkpt lat="46.56788" lon="-1.35503">
        <ele>29</ele>
        <time>2022-02-27T19:11:58Z</time>
      </trkpt>
      <trkpt lat="46.56787" lon="-1.35543">
        <ele>29</ele>
        <time>2022-02-27T19:12:05Z</time>
      </trkpt>
      <trkpt lat="46.56795" lon="-1.35569">
        <ele>30</ele>
        <time>2022-02-27T19:12:09Z</time>
      </trkpt>
      <trkpt lat="46.56776" lon="-1.35579">
        <ele>31</ele>
        <time>2022-02-27T19:12:14Z</time>
      </trkpt>
      <trkpt lat="46.56777" lon="-1.35599">
        <ele>31</ele>
        <time>2022-02-27T19:12:17Z</time>
      </trkpt>
      <trkpt lat="46.56771" lon="-1.3561">
        <ele>31</ele>
        <time>2022-02-27T19:12:20Z</time>
      </trkpt>
      <trkpt lat="46.56768" lon="-1.35608">
        <ele>32</ele>
        <time>2022-02-27T19:12:20Z</time>
      </trkpt>
      <trkpt lat="46.56755" lon="-1.35582">
        <ele>32</ele>
        <time>2022-02-27T19:12:26Z</time>
      </trkpt>
      <trkpt lat="46.56722" lon="-1.35552">
        <ele>34</ele>
        <time>2022-02-27T19:12:35Z</time>
      </trkpt>
      <trkpt lat="46.56693" lon="-1.35454">
        <ele>34</ele>
        <time>2022-02-27T19:12:52Z</time>
      </trkpt>
      <trkpt lat="46.56685" lon="-1.35444">
        <ele>35</ele>
        <time>2022-02-27T19:12:54Z</time>
      </trkpt>
      <trkpt lat="46.56656" lon="-1.35503">
        <ele>37</ele>
        <time>2022-02-27T19:13:06Z</time>
      </trkpt>
      <trkpt lat="46.56624" lon="-1.35595">
        <ele>41</ele>
        <time>2022-02-27T19:13:22Z</time>
      </trkpt>
      <trkpt lat="46.56573" lon="-1.35673">
        <ele>47</ele>
        <time>2022-02-27T19:13:40Z</time>
      </trkpt>
      <trkpt lat="46.56535" lon="-1.35757">
        <ele>48</ele>
        <time>2022-02-27T19:13:56Z</time>
      </trkpt>
      <trkpt lat="46.56514" lon="-1.35724">
        <ele>47</ele>
        <time>2022-02-27T19:14:03Z</time>
      </trkpt>
      <trkpt lat="46.56468" lon="-1.35692">
        <ele>48</ele>
        <time>2022-02-27T19:14:15Z</time>
      </trkpt>
      <trkpt lat="46.56422" lon="-1.35641">
        <ele>50</ele>
        <time>2022-02-27T19:14:28Z</time>
      </trkpt>
      <trkpt lat="46.5628" lon="-1.35735">
        <ele>60</ele>
        <time>2022-02-27T19:15:05Z</time>
      </trkpt>
      <trkpt lat="46.5618" lon="-1.35776">
        <ele>62</ele>
        <time>2022-02-27T19:15:29Z</time>
      </trkpt>
      <trkpt lat="46.56147" lon="-1.35724">
        <ele>61</ele>
        <time>2022-02-27T19:15:41Z</time>
      </trkpt>
      <trkpt lat="46.56086" lon="-1.35657">
        <ele>60</ele>
        <time>2022-02-27T19:15:58Z</time>
      </trkpt>
      <trkpt lat="46.56061" lon="-1.35594">
        <ele>56</ele>
        <time>2022-02-27T19:16:10Z</time>
      </trkpt>
      <trkpt lat="46.56036" lon="-1.355">
        <ele>52</ele>
        <time>2022-02-27T19:16:26Z</time>
      </trkpt>
      <trkpt lat="46.56028" lon="-1.35422">
        <ele>51</ele>
        <time>2022-02-27T19:16:39Z</time>
      </trkpt>
      <trkpt lat="46.56005" lon="-1.35348">
        <ele>49</ele>
        <time>2022-02-27T19:16:52Z</time>
      </trkpt>
      <trkpt lat="46.55963" lon="-1.35264">
        <ele>46</ele>
        <time>2022-02-27T19:17:09Z</time>
      </trkpt>
      <trkpt lat="46.55921" lon="-1.35196">
        <ele>45</ele>
        <time>2022-02-27T19:17:23Z</time>
      </trkpt>
      <trkpt lat="46.55888" lon="-1.3515">
        <ele>43</ele>
        <time>2022-02-27T19:17:34Z</time>
      </trkpt>
      <trkpt lat="46.5585" lon="-1.35115">
        <ele>42</ele>
        <time>2022-02-27T19:17:44Z</time>
      </trkpt>
      <trkpt lat="46.55795" lon="-1.35077">
        <ele>39</ele>
        <time>2022-02-27T19:17:59Z</time>
      </trkpt>
      <trkpt lat="46.55772" lon="-1.35066">
        <ele>37</ele>
        <time>2022-02-27T19:18:04Z</time>
      </trkpt>
      <trkpt lat="46.55816" lon="-1.35004">
        <ele>36</ele>
        <time>2022-02-27T19:18:19Z</time>
      </trkpt>
      <trkpt lat="46.55848" lon="-1.34965">
        <ele>32</ele>
        <time>2022-02-27T19:18:28Z</time>
      </trkpt>
      <trkpt lat="46.55868" lon="-1.34914">
        <ele>28</ele>
        <time>2022-02-27T19:18:38Z</time>
      </trkpt>
      <trkpt lat="46.55878" lon="-1.34856">
        <ele>27</ele>
        <time>2022-02-27T19:18:47Z</time>
      </trkpt>
      <trkpt lat="46.55867" lon="-1.34815">
        <ele>26</ele>
        <time>2022-02-27T19:18:55Z</time>
      </trkpt>
      <trkpt lat="46.5587" lon="-1.34773">
        <ele>27</ele>
        <time>2022-02-27T19:19:01Z</time>
      </trkpt>
      <trkpt lat="46.55885" lon="-1.34719">
        <ele>30</ele>
        <time>2022-02-27T19:19:11Z</time>
      </trkpt>
      <trkpt lat="46.55983" lon="-1.34775">
        <ele>29</ele>
        <time>2022-02-27T19:19:35Z</time>
      </trkpt>
      <trkpt lat="46.56013" lon="-1.34774">
        <ele>30</ele>
        <time>2022-02-27T19:19:42Z</time>
      </trkpt>
      <trkpt lat="46.56037" lon="-1.34753">
        <ele>33</ele>
        <time>2022-02-27T19:19:49Z</time>
      </trkpt>
      <trkpt lat="46.56052" lon="-1.34724">
        <ele>36</ele>
        <time>2022-02-27T19:19:55Z</time>
      </trkpt>
      <trkpt lat="46.56184" lon="-1.34532">
        <ele>52</ele>
        <time>2022-02-27T19:20:38Z</time>
      </trkpt>
      <trkpt lat="46.5614" lon="-1.34502">
        <ele>52</ele>
        <time>2022-02-27T19:20:50Z</time>
      </trkpt>
      <trkpt lat="46.56056" lon="-1.3442">
        <ele>49</ele>
        <time>2022-02-27T19:21:13Z</time>
      </trkpt>
      <trkpt lat="46.55976" lon="-1.34368">
        <ele>43</ele>
        <time>2022-02-27T19:21:34Z</time>
      </trkpt>
      <trkpt lat="46.55895" lon="-1.34323">
        <ele>39</ele>
        <time>2022-02-27T19:21:54Z</time>
      </trkpt>
      <trkpt lat="46.55822" lon="-1.3436">
        <ele>38</ele>
        <time>2022-02-27T19:22:12Z</time>
      </trkpt>
      <trkpt lat="46.55774" lon="-1.34398">
        <ele>36</ele>
        <time>2022-02-27T19:22:25Z</time>
      </trkpt>
      <trkpt lat="46.55685" lon="-1.34266">
        <ele>35</ele>
        <time>2022-02-27T19:22:54Z</time>
      </trkpt>
      <trkpt lat="46.5562" lon="-1.34262">
        <ele>32</ele>
        <time>2022-02-27T19:23:10Z</time>
      </trkpt>
      <trkpt lat="46.55582" lon="-1.3423">
        <ele>33</ele>
        <time>2022-02-27T19:23:20Z</time>
      </trkpt>
      <trkpt lat="46.55569" lon="-1.3424">
        <ele>32</ele>
        <time>2022-02-27T19:23:23Z</time>
      </trkpt>
      <trkpt lat="46.55542" lon="-1.34281">
        <ele>27</ele>
        <time>2022-02-27T19:23:32Z</time>
      </trkpt>
      <trkpt lat="46.55486" lon="-1.34225">
        <ele>30</ele>
        <time>2022-02-27T19:23:48Z</time>
      </trkpt>
      <trkpt lat="46.5545" lon="-1.34206">
        <ele>31</ele>
        <time>2022-02-27T19:23:57Z</time>
      </trkpt>
      <trkpt lat="46.55421" lon="-1.34203">
        <ele>30</ele>
        <time>2022-02-27T19:24:04Z</time>
      </trkpt>
      <trkpt lat="46.55399" lon="-1.34184">
        <ele>30</ele>
        <time>2022-02-27T19:24:10Z</time>
      </trkpt>
      <trkpt lat="46.5539" lon="-1.34153">
        <ele>31</ele>
        <time>2022-02-27T19:24:15Z</time>
      </trkpt>
      <trkpt lat="46.55414" lon="-1.34092">
        <ele>37</ele>
        <time>2022-02-27T19:24:27Z</time>
      </trkpt>
      <trkpt lat="46.55404" lon="-1.34078">
        <ele>37</ele>
        <time>2022-02-27T19:24:30Z</time>
      </trkpt>
      <trkpt lat="46.55334" lon="-1.34122">
        <ele>28</ele>
        <time>2022-02-27T19:24:48Z</time>
      </trkpt>
      <trkpt lat="46.55281" lon="-1.34114">
        <ele>29</ele>
        <time>2022-02-27T19:25:00Z</time>
      </trkpt>
      <trkpt lat="46.55227" lon="-1.34143">
        <ele>25</ele>
        <time>2022-02-27T19:25:14Z</time>
      </trkpt>
      <trkpt lat="46.55157" lon="-1.3414">
        <ele>25</ele>
        <time>2022-02-27T19:25:30Z</time>
      </trkpt>
      <trkpt lat="46.55107" lon="-1.34154">
        <ele>25</ele>
        <time>2022-02-27T19:25:42Z</time>
      </trkpt>
      <trkpt lat="46.55044" lon="-1.34156">
        <ele>26</ele>
        <time>2022-02-27T19:25:57Z</time>
      </trkpt>
      <trkpt lat="46.55019" lon="-1.34169">
        <ele>26</ele>
        <time>2022-02-27T19:26:03Z</time>
      </trkpt>
      <trkpt lat="46.54974" lon="-1.34167">
        <ele>25</ele>
        <time>2022-02-27T19:26:13Z</time>
      </trkpt>
      <trkpt lat="46.54917" lon="-1.34154">
        <ele>24</ele>
        <time>2022-02-27T19:26:27Z</time>
      </trkpt>
      <trkpt lat="46.54906" lon="-1.34135">
        <ele>25</ele>
        <time>2022-02-27T19:26:31Z</time>
      </trkpt>
      <trkpt lat="46.54845" lon="-1.34137">
        <ele>23</ele>
        <time>2022-02-27T19:26:45Z</time>
      </trkpt>
      <trkpt lat="46.54829" lon="-1.34151">
        <ele>23</ele>
        <time>2022-02-27T19:26:49Z</time>
      </trkpt>
      <trkpt lat="46.54786" lon="-1.34123">
        <ele>23</ele>
        <time>2022-02-27T19:27:00Z</time>
      </trkpt>
      <trkpt lat="46.54735" lon="-1.34106">
        <ele>25</ele>
        <time>2022-02-27T19:27:13Z</time>
      </trkpt>
      <trkpt lat="46.5469" lon="-1.34067">
        <ele>28</ele>
        <time>2022-02-27T19:27:25Z</time>
      </trkpt>
      <trkpt lat="46.54627" lon="-1.33995">
        <ele>28</ele>
        <time>2022-02-27T19:27:44Z</time>
      </trkpt>
      <trkpt lat="46.54594" lon="-1.33905">
        <ele>29</ele>
        <time>2022-02-27T19:28:00Z</time>
      </trkpt>
      <trkpt lat="46.54531" lon="-1.33846">
        <ele>35</ele>
        <time>2022-02-27T19:28:17Z</time>
      </trkpt>
      <trkpt lat="46.54491" lon="-1.33852">
        <ele>37</ele>
        <time>2022-02-27T19:28:27Z</time>
      </trkpt>
      <trkpt lat="46.54441" lon="-1.33808">
        <ele>35</ele>
        <time>2022-02-27T19:28:40Z</time>
      </trkpt>
      <trkpt lat="46.54381" lon="-1.33986">
        <ele>37</ele>
        <time>2022-02-27T19:29:12Z</time>
      </trkpt>
      <trkpt lat="46.54351" lon="-1.33951">
        <ele>37</ele>
        <time>2022-02-27T19:29:21Z</time>
      </trkpt>
      <trkpt lat="46.54289" lon="-1.34045">
        <ele>38</ele>
        <time>2022-02-27T19:29:42Z</time>
      </trkpt>
      <trkpt lat="46.54263" lon="-1.34073">
        <ele>39</ele>
        <time>2022-02-27T19:29:50Z</time>
      </trkpt>
      <trkpt lat="46.54095" lon="-1.3417">
        <ele>44</ele>
        <time>2022-02-27T19:30:32Z</time>
      </trkpt>
      <trkpt lat="46.53925" lon="-1.3437">
        <ele>54</ele>
        <time>2022-02-27T19:31:23Z</time>
      </trkpt>
      <trkpt lat="46.53745" lon="-1.34756">
        <ele>62</ele>
        <time>2022-02-27T19:32:38Z</time>
      </trkpt>
      <trkpt lat="46.53683" lon="-1.348">
        <ele>62</ele>
        <time>2022-02-27T19:32:54Z</time>
      </trkpt>
      <trkpt lat="46.53747" lon="-1.35037">
        <ele>60</ele>
        <time>2022-02-27T19:33:35Z</time>
      </trkpt>
      <trkpt lat="46.53871" lon="-1.35348">
        <ele>63</ele>
        <time>2022-02-27T19:34:33Z</time>
      </trkpt>
      <trkpt lat="46.53967" lon="-1.35392">
        <ele>61</ele>
        <time>2022-02-27T19:34:56Z</time>
      </trkpt>
      <trkpt lat="46.5404" lon="-1.35492">
        <ele>58</ele>
        <time>2022-02-27T19:35:20Z</time>
      </trkpt>
      <trkpt lat="46.54269" lon="-1.35519">
        <ele>53</ele>
        <time>2022-02-27T19:36:13Z</time>
      </trkpt>
      <trkpt lat="46.54475" lon="-1.35595">
        <ele>55</ele>
        <time>2022-02-27T19:37:03Z</time>
      </trkpt>
      <trkpt lat="46.54501" lon="-1.35602">
        <ele>56</ele>
        <time>2022-02-27T19:37:09Z</time>
      </trkpt>
      <trkpt lat="46.54488" lon="-1.35706">
        <ele>58</ele>
        <time>2022-02-27T19:37:26Z</time>
      </trkpt>
      <trkpt lat="46.54509" lon="-1.36085">
        <ele>67</ele>
        <time>2022-02-27T19:38:27Z</time>
      </trkpt>
      <trkpt lat="46.54548" lon="-1.36103">
        <ele>67</ele>
        <time>2022-02-27T19:38:37Z</time>
      </trkpt>
      <trkpt lat="46.54604" lon="-1.36328">
        <ele>71</ele>
        <time>2022-02-27T19:39:15Z</time>
      </trkpt>
      <trkpt lat="46.54628" lon="-1.36363">
        <ele>71</ele>
        <time>2022-02-27T19:39:23Z</time>
      </trkpt>
      <trkpt lat="46.54643" lon="-1.36453">
        <ele>69</ele>
        <time>2022-02-27T19:39:38Z</time>
      </trkpt>
      <trkpt lat="46.54763" lon="-1.36373">
        <ele>69</ele>
        <time>2022-02-27T19:40:09Z</time>
      </trkpt>
      <trkpt lat="46.54958" lon="-1.36334">
        <ele>68</ele>
        <time>2022-02-27T19:40:55Z</time>
      </trkpt>
      <trkpt lat="46.54986" lon="-1.36331">
        <ele>67</ele>
        <time>2022-02-27T19:41:01Z</time>
      </trkpt>
      <trkpt lat="46.54996" lon="-1.36343">
        <ele>66</ele>
        <time>2022-02-27T19:41:04Z</time>
      </trkpt>
      <trkpt lat="46.55012" lon="-1.36587">
        <ele>59</ele>
        <time>2022-02-27T19:41:44Z</time>
      </trkpt>
      <trkpt lat="46.55009" lon="-1.36756">
        <ele>61</ele>
        <time>2022-02-27T19:42:11Z</time>
      </trkpt>
      <trkpt lat="46.55039" lon="-1.36864">
        <ele>61</ele>
        <time>2022-02-27T19:42:30Z</time>
      </trkpt>
      <trkpt lat="46.55107" lon="-1.36971">
        <ele>61</ele>
        <time>2022-02-27T19:42:53Z</time>
      </trkpt>
      <trkpt lat="46.551" lon="-1.37056">
        <ele>62</ele>
        <time>2022-02-27T19:43:07Z</time>
      </trkpt>
      <trkpt lat="46.55083" lon="-1.37101">
        <ele>63</ele>
        <time>2022-02-27T19:43:15Z</time>
      </trkpt>
      <trkpt lat="46.55007" lon="-1.37244">
        <ele>65</ele>
        <time>2022-02-27T19:43:44Z</time>
      </trkpt>
      <trkpt lat="46.55009" lon="-1.37388">
        <ele>66</ele>
        <time>2022-02-27T19:44:07Z</time>
      </trkpt>
      <trkpt lat="46.54974" lon="-1.37383">
        <ele>66</ele>
        <time>2022-02-27T19:44:15Z</time>
      </trkpt>
      <trkpt lat="46.54955" lon="-1.37388">
        <ele>66</ele>
        <time>2022-02-27T19:44:20Z</time>
      </trkpt>
      <trkpt lat="46.54916" lon="-1.37431">
        <ele>67</ele>
        <time>2022-02-27T19:44:31Z</time>
      </trkpt>
      <trkpt lat="46.5494" lon="-1.3745">
        <ele>67</ele>
        <time>2022-02-27T19:44:38Z</time>
      </trkpt>
      <trkpt lat="46.54997" lon="-1.37431">
        <ele>66</ele>
        <time>2022-02-27T19:44:51Z</time>
      </trkpt>
      <trkpt lat="46.55013" lon="-1.37439">
        <ele>66</ele>
        <time>2022-02-27T19:44:55Z</time>
      </trkpt>
      <trkpt lat="46.54987" lon="-1.37686">
        <ele>66</ele>
        <time>2022-02-27T19:45:35Z</time>
      </trkpt>
      <trkpt lat="46.54994" lon="-1.37821">
        <ele>66</ele>
        <time>2022-02-27T19:45:57Z</time>
      </trkpt>
      <trkpt lat="46.54929" lon="-1.38081">
        <ele>61</ele>
        <time>2022-02-27T19:46:42Z</time>
      </trkpt>
      <trkpt lat="46.54895" lon="-1.38724">
        <ele>41</ele>
        <time>2022-02-27T19:48:25Z</time>
      </trkpt>
      <trkpt lat="46.54902" lon="-1.38795">
        <ele>40</ele>
        <time>2022-02-27T19:48:37Z</time>
      </trkpt>
      <trkpt lat="46.54946" lon="-1.38882">
        <ele>39</ele>
        <time>2022-02-27T19:48:54Z</time>
      </trkpt>
      <trkpt lat="46.5497" lon="-1.39036">
        <ele>36</ele>
        <time>2022-02-27T19:49:19Z</time>
      </trkpt>
      <trkpt lat="46.55005" lon="-1.39085">
        <ele>35</ele>
        <time>2022-02-27T19:49:31Z</time>
      </trkpt>
      <trkpt lat="46.55017" lon="-1.39095">
        <ele>36</ele>
        <time>2022-02-27T19:49:34Z</time>
      </trkpt>
      <trkpt lat="46.55036" lon="-1.39102">
        <ele>38</ele>
        <time>2022-02-27T19:49:38Z</time>
      </trkpt>
      <trkpt lat="46.55075" lon="-1.391">
        <ele>41</ele>
        <time>2022-02-27T19:49:48Z</time>
      </trkpt>
      <trkpt lat="46.55096" lon="-1.39182">
        <ele>38</ele>
        <time>2022-02-27T19:50:02Z</time>
      </trkpt>
      <trkpt lat="46.55118" lon="-1.39207">
        <ele>38</ele>
        <time>2022-02-27T19:50:08Z</time>
      </trkpt>
      <trkpt lat="46.55152" lon="-1.39205">
        <ele>38</ele>
        <time>2022-02-27T19:50:16Z</time>
      </trkpt>
      <trkpt lat="46.5522" lon="-1.39209">
        <ele>38</ele>
        <time>2022-02-27T19:50:32Z</time>
      </trkpt>
      <trkpt lat="46.55255" lon="-1.39223">
        <ele>38</ele>
        <time>2022-02-27T19:50:41Z</time>
      </trkpt>
      <trkpt lat="46.5529" lon="-1.39199">
        <ele>40</ele>
        <time>2022-02-27T19:50:50Z</time>
      </trkpt>
      <trkpt lat="46.55338" lon="-1.39223">
        <ele>40</ele>
        <time>2022-02-27T19:51:01Z</time>
      </trkpt>
      <trkpt lat="46.55442" lon="-1.39188">
        <ele>40</ele>
        <time>2022-02-27T19:51:26Z</time>
      </trkpt>
      <trkpt lat="46.55551" lon="-1.39108">
        <ele>42</ele>
        <time>2022-02-27T19:51:55Z</time>
      </trkpt>
      <trkpt lat="46.55581" lon="-1.39041">
        <ele>43</ele>
        <time>2022-02-27T19:52:08Z</time>
      </trkpt>
      <trkpt lat="46.55619" lon="-1.38977">
        <ele>44</ele>
        <time>2022-02-27T19:52:21Z</time>
      </trkpt>
      <trkpt lat="46.55697" lon="-1.38903">
        <ele>44</ele>
        <time>2022-02-27T19:52:43Z</time>
      </trkpt>
      <trkpt lat="46.55763" lon="-1.38822">
        <ele>46</ele>
        <time>2022-02-27T19:53:03Z</time>
      </trkpt>
      <trkpt lat="46.55856" lon="-1.38827">
        <ele>51</ele>
        <time>2022-02-27T19:53:25Z</time>
      </trkpt>
      <trkpt lat="46.55847" lon="-1.38901">
        <ele>49</ele>
        <time>2022-02-27T19:53:37Z</time>
      </trkpt>
      <trkpt lat="46.55824" lon="-1.39008">
        <ele>47</ele>
        <time>2022-02-27T19:53:55Z</time>
      </trkpt>
      <trkpt lat="46.5579" lon="-1.39326">
        <ele>49</ele>
        <time>2022-02-27T19:54:47Z</time>
      </trkpt>
      <trkpt lat="46.55792" lon="-1.39429">
        <ele>46</ele>
        <time>2022-02-27T19:55:03Z</time>
      </trkpt>
      <trkpt lat="46.55803" lon="-1.39515">
        <ele>46</ele>
        <time>2022-02-27T19:55:17Z</time>
      </trkpt>
      <trkpt lat="46.55801" lon="-1.39637">
        <ele>44</ele>
        <time>2022-02-27T19:55:37Z</time>
      </trkpt>
      <trkpt lat="46.55809" lon="-1.39658">
        <ele>44</ele>
        <time>2022-02-27T19:55:41Z</time>
      </trkpt>
      <trkpt lat="46.55861" lon="-1.39676">
        <ele>48</ele>
        <time>2022-02-27T19:55:53Z</time>
      </trkpt>
      <trkpt lat="46.55853" lon="-1.39741">
        <ele>47</ele>
        <time>2022-02-27T19:56:04Z</time>
      </trkpt>
      <trkpt lat="46.55864" lon="-1.39813">
        <ele>45</ele>
        <time>2022-02-27T19:56:16Z</time>
      </trkpt>
      <trkpt lat="46.55898" lon="-1.39863">
        <ele>44</ele>
        <time>2022-02-27T19:56:27Z</time>
      </trkpt>
      <trkpt lat="46.55944" lon="-1.39867">
        <ele>46</ele>
        <time>2022-02-27T19:56:38Z</time>
      </trkpt>
      <trkpt lat="46.55969" lon="-1.39895">
        <ele>46</ele>
        <time>2022-02-27T19:56:45Z</time>
      </trkpt>
      <trkpt lat="46.55973" lon="-1.40001">
        <ele>47</ele>
        <time>2022-02-27T19:57:02Z</time>
      </trkpt>
      <trkpt lat="46.56028" lon="-1.40034">
        <ele>52</ele>
        <time>2022-02-27T19:57:16Z</time>
      </trkpt>
      <trkpt lat="46.5602" lon="-1.40148">
        <ele>50</ele>
        <time>2022-02-27T19:57:34Z</time>
      </trkpt>
      <trkpt lat="46.56112" lon="-1.40282">
        <ele>53</ele>
        <time>2022-02-27T19:58:05Z</time>
      </trkpt>
      <trkpt lat="46.5623" lon="-1.40538">
        <ele>49</ele>
        <time>2022-02-27T19:58:54Z</time>
      </trkpt>
      <trkpt lat="46.5633" lon="-1.40679">
        <ele>51</ele>
        <time>2022-02-27T19:59:27Z</time>
      </trkpt>
      <trkpt lat="46.56295" lon="-1.40765">
        <ele>49</ele>
        <time>2022-02-27T19:59:43Z</time>
      </trkpt>
      <trkpt lat="46.5625" lon="-1.40843">
        <ele>46</ele>
        <time>2022-02-27T19:59:59Z</time>
      </trkpt>
      <trkpt lat="46.56292" lon="-1.4094">
        <ele>50</ele>
        <time>2022-02-27T20:00:18Z</time>
      </trkpt>
      <trkpt lat="46.56407" lon="-1.41072">
        <ele>52</ele>
        <time>2022-02-27T20:00:52Z</time>
      </trkpt>
      <trkpt lat="46.56477" lon="-1.41227">
        <ele>57</ele>
        <time>2022-02-27T20:01:22Z</time>
      </trkpt>
      <trkpt lat="46.56431" lon="-1.41281">
        <ele>60</ele>
        <time>2022-02-27T20:01:35Z</time>
      </trkpt>
      <trkpt lat="46.56119" lon="-1.41359">
        <ele>70</ele>
        <time>2022-02-27T20:02:49Z</time>
      </trkpt>
      <trkpt lat="46.56019" lon="-1.41547">
        <ele>68</ele>
        <time>2022-02-27T20:03:28Z</time>
      </trkpt>
      <trkpt lat="46.55975" lon="-1.41605">
        <ele>69</ele>
        <time>2022-02-27T20:03:41Z</time>
      </trkpt>
      <trkpt lat="46.55949" lon="-1.41667">
        <ele>70</ele>
        <time>2022-02-27T20:03:53Z</time>
      </trkpt>
      <trkpt lat="46.5588" lon="-1.41767">
        <ele>72</ele>
        <time>2022-02-27T20:04:16Z</time>
      </trkpt>
      <trkpt lat="46.55879" lon="-1.41927">
        <ele>76</ele>
        <time>2022-02-27T20:04:41Z</time>
      </trkpt>
      <trkpt lat="46.55751" lon="-1.42703">
        <ele>75</ele>
        <time>2022-02-27T20:06:50Z</time>
      </trkpt>
      <trkpt lat="46.5588" lon="-1.42683">
        <ele>74</ele>
        <time>2022-02-27T20:07:20Z</time>
      </trkpt>
      <trkpt lat="46.55949" lon="-1.42629">
        <ele>75</ele>
        <time>2022-02-27T20:07:38Z</time>
      </trkpt>
      <trkpt lat="46.55988" lon="-1.42726">
        <ele>74</ele>
        <time>2022-02-27T20:07:56Z</time>
      </trkpt>
      <trkpt lat="46.56086" lon="-1.42784">
        <ele>76</ele>
        <time>2022-02-27T20:08:21Z</time>
      </trkpt>
      <trkpt lat="46.56179" lon="-1.42816">
        <ele>76</ele>
        <time>2022-02-27T20:08:43Z</time>
      </trkpt>
      <trkpt lat="46.56291" lon="-1.42902">
        <ele>76</ele>
        <time>2022-02-27T20:09:13Z</time>
      </trkpt>
      <trkpt lat="46.5637" lon="-1.4294">
        <ele>75</ele>
        <time>2022-02-27T20:09:32Z</time>
      </trkpt>
      <trkpt lat="46.5649" lon="-1.42935">
        <ele>72</ele>
        <time>2022-02-27T20:10:00Z</time>
      </trkpt>
      <trkpt lat="46.56576" lon="-1.42666">
        <ele>70</ele>
        <time>2022-02-27T20:10:48Z</time>
      </trkpt>
      <trkpt lat="46.56668" lon="-1.42457">
        <ele>69</ele>
        <time>2022-02-27T20:11:28Z</time>
      </trkpt>
      <trkpt lat="46.56826" lon="-1.42624">
        <ele>67</ele>
        <time>2022-02-27T20:12:13Z</time>
      </trkpt>
      <trkpt lat="46.56864" lon="-1.42739">
        <ele>70</ele>
        <time>2022-02-27T20:12:34Z</time>
      </trkpt>
      <trkpt lat="46.56864" lon="-1.42873">
        <ele>71</ele>
        <time>2022-02-27T20:12:55Z</time>
      </trkpt>
      <trkpt lat="46.56849" lon="-1.42895">
        <ele>72</ele>
        <time>2022-02-27T20:13:00Z</time>
      </trkpt>
      <trkpt lat="46.5688" lon="-1.43027">
        <ele>73</ele>
        <time>2022-02-27T20:13:23Z</time>
      </trkpt>
      <trkpt lat="46.5694" lon="-1.43182">
        <ele>75</ele>
        <time>2022-02-27T20:13:51Z</time>
      </trkpt>
      <trkpt lat="46.57053" lon="-1.4327">
        <ele>75</ele>
        <time>2022-02-27T20:14:21Z</time>
      </trkpt>
      <trkpt lat="46.57116" lon="-1.43407">
        <ele>72</ele>
        <time>2022-02-27T20:14:48Z</time>
      </trkpt>
      <trkpt lat="46.57124" lon="-1.43589">
        <ele>68</ele>
        <time>2022-02-27T20:15:17Z</time>
      </trkpt>
      <trkpt lat="46.57161" lon="-1.4364">
        <ele>68</ele>
        <time>2022-02-27T20:15:29Z</time>
      </trkpt>
      <trkpt lat="46.57201" lon="-1.43747">
        <ele>66</ele>
        <time>2022-02-27T20:15:48Z</time>
      </trkpt>
      <trkpt lat="46.57266" lon="-1.43743">
        <ele>67</ele>
        <time>2022-02-27T20:16:04Z</time>
      </trkpt>
      <trkpt lat="46.57259" lon="-1.4385">
        <ele>68</ele>
        <time>2022-02-27T20:16:21Z</time>
      </trkpt>
      <trkpt lat="46.57237" lon="-1.4405">
        <ele>65</ele>
        <time>2022-02-27T20:16:53Z</time>
      </trkpt>
      <trkpt lat="46.57244" lon="-1.44134">
        <ele>63</ele>
        <time>2022-02-27T20:17:07Z</time>
      </trkpt>
      <trkpt lat="46.57378" lon="-1.44125">
        <ele>64</ele>
        <time>2022-02-27T20:17:38Z</time>
      </trkpt>
      <trkpt lat="46.57436" lon="-1.44146">
        <ele>64</ele>
        <time>2022-02-27T20:17:52Z</time>
      </trkpt>
      <trkpt lat="46.57542" lon="-1.44049">
        <ele>64</ele>
        <time>2022-02-27T20:18:22Z</time>
      </trkpt>
      <trkpt lat="46.57653" lon="-1.44043">
        <ele>61</ele>
        <time>2022-02-27T20:18:47Z</time>
      </trkpt>
      <trkpt lat="46.57693" lon="-1.43976">
        <ele>60</ele>
        <time>2022-02-27T20:19:02Z</time>
      </trkpt>
      <trkpt lat="46.57885" lon="-1.43961">
        <ele>63</ele>
        <time>2022-02-27T20:19:47Z</time>
      </trkpt>
      <trkpt lat="46.57922" lon="-1.43934">
        <ele>64</ele>
        <time>2022-02-27T20:19:56Z</time>
      </trkpt>
      <trkpt lat="46.57957" lon="-1.43953">
        <ele>62</ele>
        <time>2022-02-27T20:20:05Z</time>
      </trkpt>
      <trkpt lat="46.58031" lon="-1.43855">
        <ele>68</ele>
        <time>2022-02-27T20:20:28Z</time>
      </trkpt>
      <trkpt lat="46.58281" lon="-1.43767">
        <ele>72</ele>
        <time>2022-02-27T20:21:28Z</time>
      </trkpt>
      <trkpt lat="46.58439" lon="-1.4401">
        <ele>70</ele>
        <time>2022-02-27T20:22:22Z</time>
      </trkpt>
      <trkpt lat="46.58594" lon="-1.44143">
        <ele>67</ele>
        <time>2022-02-27T20:23:04Z</time>
      </trkpt>
      <trkpt lat="46.58746" lon="-1.44355">
        <ele>61</ele>
        <time>2022-02-27T20:23:53Z</time>
      </trkpt>
      <trkpt lat="46.58683" lon="-1.44528">
        <ele>54</ele>
        <time>2022-02-27T20:24:25Z</time>
      </trkpt>
      <trkpt lat="46.58794" lon="-1.44647">
        <ele>56</ele>
        <time>2022-02-27T20:24:57Z</time>
      </trkpt>
      <trkpt lat="46.59032" lon="-1.44453">
        <ele>65</ele>
        <time>2022-02-27T20:26:01Z</time>
      </trkpt>
      <trkpt lat="46.59055" lon="-1.44534">
        <ele>66</ele>
        <time>2022-02-27T20:26:15Z</time>
      </trkpt>
      <trkpt lat="46.59119" lon="-1.44622">
        <ele>68</ele>
        <time>2022-02-27T20:26:35Z</time>
      </trkpt>
      <trkpt lat="46.5919" lon="-1.44571">
        <ele>67</ele>
        <time>2022-02-27T20:26:54Z</time>
      </trkpt>
      <trkpt lat="46.59236" lon="-1.44656">
        <ele>68</ele>
        <time>2022-02-27T20:27:11Z</time>
      </trkpt>
      <trkpt lat="46.59296" lon="-1.44692">
        <ele>67</ele>
        <time>2022-02-27T20:27:26Z</time>
      </trkpt>
      <trkpt lat="46.59332" lon="-1.44759">
        <ele>67</ele>
        <time>2022-02-27T20:27:40Z</time>
      </trkpt>
      <trkpt lat="46.59434" lon="-1.44773">
        <ele>62</ele>
        <time>2022-02-27T20:28:04Z</time>
      </trkpt>
      <trkpt lat="46.59516" lon="-1.45144">
        <ele>51</ele>
        <time>2022-02-27T20:29:06Z</time>
      </trkpt>
      <trkpt lat="46.59556" lon="-1.45168">
        <ele>52</ele>
        <time>2022-02-27T20:29:17Z</time>
      </trkpt>
      <trkpt lat="46.59521" lon="-1.45223">
        <ele>52</ele>
        <time>2022-02-27T20:29:29Z</time>
      </trkpt>
      <trkpt lat="46.59521" lon="-1.45274">
        <ele>53</ele>
        <time>2022-02-27T20:29:37Z</time>
      </trkpt>
      <trkpt lat="46.59534" lon="-1.45324">
        <ele>55</ele>
        <time>2022-02-27T20:29:45Z</time>
      </trkpt>
    </trkseg>
  </trk>
</gpx>